INTELSAT 33E (IS-33E) (41748 NORAD) Tracking and Keplerian Element Data

This shows tracking and keplerian element data for the satellite.

Feedback or suggestion? Click here.




ElementValue
Catalog41748
NameINTELSAT 33E (IS-33E)
Epoch Orbit1347
Epoch Day91.98938465
Epoch Year2020
RAAN1.1264
Inclination0.0443
Eccentricity0.0001673
Argument of Perigee20.5273
Mean Anonmoly224.3261
Mean Motion1.0027123
Decay Rate4.6E-07
L11 41748U 16053B 20091.98938465 .00000046 00000-0 00000+0 0 9992
L22 41748 0.0443 1.1264 0001673 20.5273 224.3261 1.00271230 13478

Live tracking and technical data element details for INTELSAT 33E (IS-33E) (NORAD 41748). INTELSAT 33E (IS-33E) can be tracked NOW for your location showing map with azimuth and elevation plus other details from your city location.

Track the satellite on the map from your city or location and see movement details for azimuth, elevation, latitude, longitude, range, height, and movement on the map or in text.







IsCatalogInMostPopularTable: catalog: 41748, numindb: 357
Update: records affected: 1



GetName: 41748 INTELSAT 33E (IS-33E)

Hit Count: updated at: Fri, 03 Apr 2020 07:54:10 GMT